Location: �clusier
(49.9361°N, 2.7869°E)
Time: 05:47:33
(UTC+00:00)

Cosmos 2016 Rocket - Pass Details

Date: 29 October 2021
Orbit: 947 x 1000 km, 83.0° (Epoch: 05 December)

Event Time Altitude Azimuth Distance (km) Brightness Sun altitude
Rises 17:47:11 0° 144° (SE) 3,645 6.7 -12.8°
Reaches altitude 10° 17:50:12 10° 131° (SE) 2,695 5.9 -13.3°
Maximum altitude 17:54:49 23° 82° (E) 1,922 4.9 -14.0°
Drops below altitude 10° 17:59:26 10° 33° (NNE) 2,688 6.0 -14.7°
Sets 18:02:25 0° 19° (NNE) 3,634 6.8 -15.2°
